Regional Weather Roundup
Issued by NWS

Home | Current Version | Previous Version | Graphics & Text | Print | Product List | Glossary On
Versions: 1 2 3 4 5 6 7 8 9 10 11 12 13 14 15 16 17 18 19 20 21 22 23 24 25 26 27 28 29 30 31 32 33 34 35 36 37 38 39 40 41 42 43 44 45 46 47 48 49 50
000
ASUS45 KABQ 010401
RWRNM
NEW MEXICO REGIONAL WEATHER ROUNDUP
NATIONAL WEATHER SERVICE ALBUQUERQUE NM
1000 PM MDT FRI JUL 31 2015

NOTE: "FAIR" MEANS FEW OR NO CLOUDS BELOW 12,000 FEET AGL WITH NO
       SIGNIFICANT WEATHER OR OBSTRUCTIONS TO VISION.

      THIS PRODUCT IS RELEASED AS TWO VERSIONS.  ONE VERSION NEAR
      THE TOP OF THE HOUR CONTAINING PRELIMINARY DATA FROM ALBUQUERQUE
      AND OTHER STATIONS.  A FINAL VERSION WITH ADDITIONAL DATA IS
      ISSUED ABOUT 10 MINUTES AFTER THE HOUR.

NMZ501-503-504-510>518-010500-
NORTHWEST PLATEAU/NORTHCENTRAL MOUNTAINS

CITY           SKY/WX    TMP DP  RH WIND       PRES   REMARKS
FARMINGTON     CLEAR     68  57  68 E6        30.28R
SANTA FE       CLOUDY    65  58  78 CALM      30.36R
TAOS           CLOUDY    59  46  63 N5        30.43R
ANGEL FIRE     MOCLDY    52  50  94 CALM      30.53R

$$
NMZ402-403-502-505>509-010500-
WESTCENTRAL MOUNTAINS/SOUTHWEST MOUNTAINS

CITY           SKY/WX    TMP DP  RH WIND       PRES   REMARKS
GALLUP         LGT RAIN  62  59  90 E7        30.36R
GRANTS         CLOUDY    64  62  94 CALM      30.38S
SILVER CITY      N/A     75  59  57 E6        30.26R

$$
NMZ407-409-411-412-010500-
SOUTHERN DESERTS

CITY           SKY/WX    TMP DP  RH WIND       PRES   REMARKS
DEMING         CLEAR     78  60  53 CALM      30.15R
HOLLOMAN AFB   CLOUDY    85  53  33 NW5       30.16R
ALAMOGORDO     MOCLDY    84  52  32 N5        30.17R
T OR C         MOCLDY    80  58  46 CALM      30.21R

$$
NMZ519>523-010500-
CENTRAL VALLEYS/CENTRAL HIGHLANDS

CITY           SKY/WX    TMP DP  RH WIND       PRES   REMARKS
ALBUQUERQUE    CLOUDY    74  55  51 E14       30.30R
DOUBLE EAGLE   MOCLDY    64  59  82 CALM      30.34
MORIARTY ARPT  RAIN      62  58  85 S10       30.40R
CLINES CORNERS CLOUDY    63  60  90 SW9       30.41R
BELEN          MOCLDY    72  57  60 S9        30.30R
SOCORRO        NOT AVBL

$$
NMZ524>526-539-540-010500-
SOUTHCENTRAL MOUNTAINS

CITY           SKY/WX    TMP DP  RH WIND       PRES   REMARKS
RUIDOSO          N/A    N/A N/A N/A MISG        N/A

$$
NMZ527>531-010500-
NORTHEAST HIGHLANDS/NORTHEAST PLAINS

CITY           SKY/WX    TMP DP  RH WIND       PRES   REMARKS
LAS VEGAS      CLOUDY    60  57  89 S7        30.40R
RATON          CLOUDY    64  60  87 CALM      30.34R
CLAYTON        CLOUDY    69  65  86 SE8       30.28R

$$
NMZ532>537-010500-
EASTCENTRAL PLAINS

CITY           SKY/WX    TMP DP  RH WIND       PRES   REMARKS
TUCUMCARI      CLOUDY    69  65  86 CALM      30.21S
CANNON AFB     MOCLDY    70  67  90 NE7       30.24R
CLOVIS AIRPORT CLOUDY    70  63  78 NE7       30.25S

$$
NMZ028-029-538-010500-
SOUTHEAST PLAINS

CITY           SKY/WX    TMP DP  RH WIND       PRES   REMARKS
ROSWELL        MOCLDY    85  54  34 NE13      30.15R
ARTESIA        MOCLDY    88  57  35 NE12G22   30.14R
CARLSBAD       PTCLDY    84  51  31 SE6       30.10R
HOBBS          PTCLDY    82  63  51 E16G23    30.17R


$$



USA.gov is the U.S. government's official web portal to all federal, state and local government web resources and services.